Time,TemperatureF,DewpointF,PressureIn,WindDirection,WindDirectionDegrees,WindSpeedMPH,WindSpeedGustMPH,Humidity,HourlyPrecipIn,Conditions,Clouds,dailyrainin,SolarRadiationWatts/m^2,SoftwareType,DateUTC
2013-11-08 00:09:00,40.4,30.0,30.19,SE,145,0.0,10.0,67,0.00,,,0.21,0,weatherlink.com 1.10,2013-11-08 07:09:00,
2013-11-08 00:24:00,39.3,31.0,30.21,NW,324,0.0,2.0,73,0.00,,,0.21,0,weatherlink.com 1.10,2013-11-08 07:24:00,
2013-11-08 00:39:00,38.8,30.0,30.21,NW,324,0.0,0.0,72,0.00,,,0.21,0,weatherlink.com 1.10,2013-11-08 07:39:00,
2013-11-08 00:54:00,38.7,31.0,30.21,NE,53,0.0,4.0,73,0.00,,,0.00,0,weatherlink.com 1.10,2013-11-08 07:54:00,
2013-11-08 01:09:00,39.2,31.0,30.22,East,86,2.0,5.0,72,0.00,,,0.00,0,weatherlink.com 1.10,2013-11-08 08:09:00,
2013-11-08 01:24:00,39.5,30.0,30.23,ESE,123,0.0,2.0,70,0.00,,,0.00,0,weatherlink.com 1.10,2013-11-08 08:24:00,
2013-11-08 01:39:00,38.9,31.0,30.23,ESE,123,0.0,0.0,72,0.00,,,0.00,0,weatherlink.com 1.10,2013-11-08 08:39:00,
2013-11-08 01:54:00,38.9,31.0,30.23,ESE,123,0.0,0.0,72,0.00,,,0.00,0,weatherlink.com 1.10,2013-11-08 08:54:00,
2013-11-08 02:09:00,38.6,31.0,30.23,South,184,4.0,10.0,74,0.00,,,0.00,0,weatherlink.com 1.10,2013-11-08 09:09:00,
2013-11-08 02:24:00,38.1,31.0,30.23,SSE,157,0.0,3.0,75,0.00,,,0.00,0,weatherlink.com 1.10,2013-11-08 09:24:00,
2013-11-08 02:40:00,38.0,31.0,30.24,SSE,150,0.0,0.0,75,0.00,,,0.00,0,weatherlink.com 1.10,2013-11-08 09:40:00,
2013-11-08 02:55:00,38.0,31.0,30.24,SW,221,0.0,5.0,75,0.00,,,0.00,0,weatherlink.com 1.10,2013-11-08 09:55:00,
2013-11-08 03:10:00,38.0,31.0,30.25,SW,220,0.0,5.0,76,0.00,,,0.00,0,weatherlink.com 1.10,2013-11-08 10:10:00,
2013-11-08 03:25:00,37.9,31.0,30.25,South,171,0.0,2.0,77,0.00,,,0.00,0,weatherlink.com 1.10,2013-11-08 10:25:00,
2013-11-08 03:40:00,38.0,31.0,30.25,SSW,198,0.0,5.0,77,0.00,,,0.00,0,weatherlink.com 1.10,2013-11-08 10:40:00,
2013-11-08 03:55:00,38.0,31.0,30.25,South,172,0.0,1.0,77,0.00,,,0.00,0,weatherlink.com 1.10,2013-11-08 10:55:00,
2013-11-08 04:10:00,38.2,31.0,30.25,SSE,168,0.0,3.0,76,0.00,,,0.00,0,weatherlink.com 1.10,2013-11-08 11:10:00,
2013-11-08 04:25:00,38.3,31.0,30.26,South,169,0.0,2.0,76,0.00,,,0.00,0,weatherlink.com 1.10,2013-11-08 11:25:00,
2013-11-08 04:40:00,38.6,31.0,30.27,South,169,0.0,3.0,74,0.00,,,0.00,0,weatherlink.com 1.10,2013-11-08 11:40:00,
2013-11-08 04:55:00,38.8,31.0,30.27,South,169,0.0,0.0,74,0.00,,,0.00,0,weatherlink.com 1.10,2013-11-08 11:55:00,
2013-11-08 05:10:00,38.8,31.0,30.27,South,170,3.0,4.0,74,0.00,,,0.00,0,weatherlink.com 1.10,2013-11-08 12:10:00,
2013-11-08 05:25:00,38.6,32.0,30.27,South,187,1.0,8.0,76,0.00,,,0.00,0,weatherlink.com 1.10,2013-11-08 12:25:00,
2013-11-08 05:40:00,38.4,32.0,30.28,South,172,1.0,8.0,77,0.00,,,0.00,0,weatherlink.com 1.10,2013-11-08 12:40:00,
2013-11-08 05:55:00,38.3,32.0,30.27,SSE,163,8.0,9.0,77,0.00,,,0.00,0,weatherlink.com 1.10,2013-11-08 12:55:00,
2013-11-08 06:10:00,38.5,32.0,30.28,SSW,199,8.0,10.0,77,0.00,,,0.00,0,weatherlink.com 1.10,2013-11-08 13:10:00,
2013-11-08 06:25:00,38.3,32.0,30.28,South,169,4.0,8.0,78,0.00,,,0.00,0,weatherlink.com 1.10,2013-11-08 13:25:00,
2013-11-08 06:40:00,38.5,32.0,30.28,South,175,6.0,12.0,78,0.00,,,0.00,0,weatherlink.com 1.10,2013-11-08 13:40:00,
2013-11-08 06:55:00,38.4,32.0,30.28,South,177,2.0,7.0,77,0.00,,,0.00,0,weatherlink.com 1.10,2013-11-08 13:55:00,
2013-11-08 07:10:00,38.4,32.0,30.29,South,176,0.0,7.0,78,0.00,,,0.00,0,weatherlink.com 1.10,2013-11-08 14:10:00,
2013-11-08 07:25:00,38.5,32.0,30.28,South,178,1.0,10.0,78,0.00,,,0.00,0,weatherlink.com 1.10,2013-11-08 14:25:00,
2013-11-08 07:40:00,38.4,32.0,30.29,SSE,155,8.0,10.0,78,0.00,,,0.00,0,weatherlink.com 1.10,2013-11-08 14:40:00,
2013-11-08 07:55:00,38.4,32.0,30.29,SSW,198,10.0,13.0,79,0.00,,,0.00,12,weatherlink.com 1.10,2013-11-08 14:55:00,
2013-11-08 08:10:00,38.1,32.0,30.29,South,171,4.0,9.0,80,0.00,,,0.00,26,weatherlink.com 1.10,2013-11-08 15:10:00,
2013-11-08 08:25:00,38.3,33.0,30.30,South,190,4.0,12.0,81,0.00,,,0.00,25,weatherlink.com 1.10,2013-11-08 15:25:00,
2013-11-08 08:40:00,38.4,33.0,30.31,SSW,210,7.0,14.0,80,0.00,,,0.00,25,weatherlink.com 1.10,2013-11-08 15:40:00,
2013-11-08 08:55:00,38.4,33.0,30.30,SSE,157,0.0,6.0,82,0.00,,,0.00,49,weatherlink.com 1.10,2013-11-08 15:55:00,
2013-11-08 09:10:00,38.5,33.0,30.31,South,175,0.0,7.0,81,0.00,,,0.00,72,weatherlink.com 1.10,2013-11-08 16:10:00,
2013-11-08 09:25:00,38.6,33.0,30.31,South,171,2.0,7.0,81,0.00,,,0.00,76,weatherlink.com 1.10,2013-11-08 16:25:00,
2013-11-08 09:40:00,38.8,33.0,30.30,South,181,1.0,7.0,81,0.00,,,0.00,135,weatherlink.com 1.10,2013-11-08 16:40:00,
2013-11-08 09:55:00,39.2,33.0,30.31,SE,146,7.0,9.0,79,0.00,,,0.00,172,weatherlink.com 1.10,2013-11-08 16:55:00,
2013-11-08 10:10:00,39.4,34.0,30.31,SSE,151,5.0,6.0,80,0.00,,,0.00,130,weatherlink.com 1.10,2013-11-08 17:10:00,
2013-11-08 10:25:00,39.6,34.0,30.31,SSE,162,9.0,12.0,79,0.00,,,0.00,139,weatherlink.com 1.10,2013-11-08 17:25:00,
2013-11-08 10:40:00,39.8,34.0,30.31,SW,220,5.0,10.0,80,0.00,,,0.00,118,weatherlink.com 1.10,2013-11-08 17:40:00,
2013-11-08 10:55:00,39.8,34.0,30.32,SSW,197,6.0,10.0,81,0.00,,,0.00,137,weatherlink.com 1.10,2013-11-08 17:55:00,
2013-11-08 11:10:00,39.9,35.0,30.32,SSW,213,0.0,7.0,81,0.00,,,0.00,72,weatherlink.com 1.10,2013-11-08 18:10:00,
2013-11-08 11:25:00,39.9,35.0,30.32,South,184,0.0,7.0,81,0.00,,,0.00,67,weatherlink.com 1.10,2013-11-08 18:25:00,
2013-11-08 11:40:00,39.8,34.0,30.32,South,187,2.0,9.0,81,0.00,,,0.00,178,weatherlink.com 1.10,2013-11-08 18:40:00,
2013-11-08 11:55:00,39.8,34.0,30.33,SW,223,2.0,7.0,81,0.00,,,0.00,44,weatherlink.com 1.10,2013-11-08 18:55:00,
2013-11-08 12:11:00,39.7,35.0,30.33,SW,231,0.0,4.0,82,0.00,,,0.00,63,weatherlink.com 1.10,2013-11-08 19:11:00,
2013-11-08 12:26:00,39.7,35.0,30.33,SSW,207,2.0,3.0,83,0.00,,,0.00,51,weatherlink.com 1.10,2013-11-08 19:26:00,
2013-11-08 12:41:00,39.6,35.0,30.33,West,280,0.0,2.0,82,0.00,,,0.00,70,weatherlink.com 1.10,2013-11-08 19:41:00,
2013-11-08 12:56:00,39.7,35.0,30.33,South,186,0.0,1.0,84,0.00,,,0.00,72,weatherlink.com 1.10,2013-11-08 19:56:00,
2013-11-08 13:11:00,39.8,35.0,30.33,SSE,165,0.0,3.0,82,0.00,,,0.00,60,weatherlink.com 1.10,2013-11-08 20:11:00,
2013-11-08 13:26:00,39.7,35.0,30.32,South,173,0.0,6.0,82,0.00,,,0.00,42,weatherlink.com 1.10,2013-11-08 20:26:00,
2013-11-08 13:41:00,39.4,35.0,30.33,SW,220,0.0,3.0,84,0.01,,,0.01,63,weatherlink.com 1.10,2013-11-08 20:41:00,
2013-11-08 13:56:00,39.3,35.0,30.33,NE,44,1.0,4.0,84,0.02,,,0.02,51,weatherlink.com 1.10,2013-11-08 20:56:00,
2013-11-08 14:11:00,39.5,35.0,30.32,ENE,66,0.0,4.0,85,0.02,,,0.02,67,weatherlink.com 1.10,2013-11-08 21:11:00,
2013-11-08 14:26:00,40.1,36.0,30.33,NNW,330,3.0,7.0,84,0.02,,,0.02,54,weatherlink.com 1.10,2013-11-08 21:26:00,
2013-11-08 14:41:00,39.9,36.0,30.34,NNW,333,5.0,9.0,85,0.01,,,0.02,67,weatherlink.com 1.10,2013-11-08 21:41:00,
2013-11-08 14:56:00,40.1,35.0,30.34,NNE,24,3.0,5.0,82,0.00,,,0.02,44,weatherlink.com 1.10,2013-11-08 21:56:00,
2013-11-08 15:11:00,40.5,35.0,30.34,NE,34,0.0,0.0,82,0.00,,,0.02,32,weatherlink.com 1.10,2013-11-08 22:11:00,
2013-11-08 15:26:00,40.7,33.0,30.35,NNE,15,19.0,20.0,74,0.00,,,0.02,23,weatherlink.com 1.10,2013-11-08 22:26:00,
2013-11-08 15:41:00,41.0,31.0,30.36,North,11,16.0,22.0,68,0.00,,,0.02,30,weatherlink.com 1.10,2013-11-08 22:41:00,
2013-11-08 15:56:00,40.1,31.0,30.36,North,5,16.0,25.0,70,0.00,,,0.02,30,weatherlink.com 1.10,2013-11-08 22:56:00,
2013-11-08 16:11:00,39.9,31.0,30.37,North,5,19.0,24.0,70,0.00,,,0.02,37,weatherlink.com 1.10,2013-11-08 23:11:00,
2013-11-08 16:26:00,39.9,30.0,30.38,NNW,344,18.0,24.0,67,0.00,,,0.02,54,weatherlink.com 1.10,2013-11-08 23:26:00,
2013-11-08 16:41:00,39.3,30.0,30.39,North,355,19.0,23.0,70,0.00,,,0.02,16,weatherlink.com 1.10,2013-11-08 23:41:00,
2013-11-08 16:56:00,41.6,22.0,30.39,NNW,335,8.0,21.0,45,0.00,,,0.02,11,weatherlink.com 1.10,2013-11-08 23:56:00,
2013-11-08 17:11:00,39.7,28.0,30.39,NNE,19,10.0,13.0,64,0.00,,,0.02,0,weatherlink.com 1.10,2013-11-09 00:11:00,
2013-11-08 17:26:00,39.5,27.0,30.40,North,9,9.0,12.0,61,0.00,,,0.02,0,weatherlink.com 1.10,2013-11-09 00:26:00,
2013-11-08 17:41:00,39.6,27.0,30.41,North,355,6.0,13.0,61,0.00,,,0.02,0,weatherlink.com 1.10,2013-11-09 00:41:00,
2013-11-08 17:56:00,40.2,26.0,30.42,North,5,3.0,16.0,57,0.00,,,0.02,0,weatherlink.com 1.10,2013-11-09 00:56:00,
2013-11-08 18:11:00,39.1,29.0,30.42,SE,132,4.0,9.0,66,0.00,,,0.02,0,weatherlink.com 1.10,2013-11-09 01:11:00,
2013-11-08 18:26:00,38.5,27.0,30.42,North,5,3.0,7.0,63,0.00,,,0.02,0,weatherlink.com 1.10,2013-11-09 01:26:00,
2013-11-08 18:41:00,38.9,28.0,30.43,SSW,201,0.0,6.0,65,0.00,,,0.02,0,weatherlink.com 1.10,2013-11-09 01:41:00,
2013-11-08 18:56:00,38.7,28.0,30.43,NNE,19,0.0,8.0,65,0.00,,,0.02,0,weatherlink.com 1.10,2013-11-09 01:56:00,
2013-11-08 19:11:00,39.4,26.0,30.44,NNW,348,8.0,12.0,59,0.00,,,0.02,0,weatherlink.com 1.10,2013-11-09 02:11:00,
2013-11-08 19:26:00,39.4,26.0,30.45,WNW,302,0.0,3.0,58,0.00,,,0.02,0,weatherlink.com 1.10,2013-11-09 02:26:00,
2013-11-08 19:41:00,39.8,24.0,30.45,ENE,60,0.0,0.0,54,0.00,,,0.02,0,weatherlink.com 1.10,2013-11-09 02:41:00,
2013-11-08 19:56:00,39.9,24.0,30.45,NE,42,1.0,1.0,53,0.00,,,0.02,0,weatherlink.com 1.10,2013-11-09 02:56:00,
2013-11-08 20:11:00,39.5,25.0,30.45,NNE,18,2.0,6.0,56,0.00,,,0.02,0,weatherlink.com 1.10,2013-11-09 03:11:00,
2013-11-08 20:26:00,38.9,26.0,30.45,NNW,338,2.0,7.0,60,0.00,,,0.02,0,weatherlink.com 1.10,2013-11-09 03:26:00,
2013-11-08 20:41:00,38.7,26.0,30.46,WNW,288,0.0,5.0,61,0.00,,,0.02,0,weatherlink.com 1.10,2013-11-09 03:41:00,
2013-11-08 20:56:00,38.4,26.0,30.45,NE,38,7.0,7.0,62,0.00,,,0.02,0,weatherlink.com 1.10,2013-11-09 03:56:00,
2013-11-08 21:11:00,38.8,26.0,30.46,NNE,28,3.0,8.0,61,0.00,,,0.02,0,weatherlink.com 1.10,2013-11-09 04:11:00,
2013-11-08 21:26:00,38.6,27.0,30.47,North,360,2.0,5.0,63,0.00,,,0.02,0,weatherlink.com 1.10,2013-11-09 04:26:00,
2013-11-08 21:41:00,38.0,27.0,30.47,NNE,26,3.0,5.0,64,0.00,,,0.02,0,weatherlink.com 1.10,2013-11-09 04:41:00,
2013-11-08 21:56:00,37.8,27.0,30.47,NE,41,8.0,9.0,66,0.00,,,0.02,0,weatherlink.com 1.10,2013-11-09 04:56:00,
2013-11-08 22:11:00,38.0,27.0,30.47,NNE,32,6.0,9.0,65,0.00,,,0.02,0,weatherlink.com 1.10,2013-11-09 05:11:00,
2013-11-08 22:26:00,38.1,28.0,30.48,NE,42,8.0,9.0,66,0.00,,,0.02,0,weatherlink.com 1.10,2013-11-09 05:26:00,
2013-11-08 22:41:00,38.0,27.0,30.48,NNE,22,7.0,8.0,66,0.00,,,0.02,0,weatherlink.com 1.10,2013-11-09 05:41:00,
2013-11-08 22:56:00,38.0,28.0,30.49,NNE,24,2.0,3.0,68,0.00,,,0.02,0,weatherlink.com 1.10,2013-11-09 05:56:00,
2013-11-08 23:11:00,37.7,28.0,30.49,North,9,0.0,4.0,67,0.00,,,0.02,0,weatherlink.com 1.10,2013-11-09 06:11:00,
2013-11-08 23:26:00,37.5,28.0,30.50,North,5,0.0,0.0,68,0.00,,,0.02,0,weatherlink.com 1.10,2013-11-09 06:26:00,
2013-11-08 23:41:00,37.6,28.0,30.50,NE,44,6.0,6.0,69,0.00,,,0.02,0,weatherlink.com 1.10,2013-11-09 06:41:00,
2013-11-08 23:56:00,38.6,28.0,30.50,NE,55,9.0,14.0,67,0.00,,,0.02,0,weatherlink.com 1.10,2013-11-09 06:56:00,